Location: Newark
(59.4564°N, 26.6917°E)
Time: 16:23:37
(UTC+00:00)

Vanguard 3 - Pass Details

Date: 29 November 2019
Orbit: 508 x 3263 km, 33.3° (Epoch: 06 December)

Event Time Altitude Azimuth Distance (km) Brightness Sun altitude
Rises 15:27:06 0° 267° (W) 7,152 13.6 -14.2°
Reaches altitude 10° 15:36:18 10° 245° (WSW) 6,197 13.0 -15.3°
Maximum altitude 15:42:59 13° 225° (SW) 5,821 12.4 -16.1°
Drops below altitude 10° 15:49:21 10° 204° (SSW) 5,807 12.0 -16.9°
Sets 15:57:20 0° 180° (S) 6,307 11.9 -17.9°
